Location: Asbacherhof
(48.8543°N, 10.7903°E)
Time: 23:01:09
(UTC+00:00)

IRS-1D - Pass Details

Date: 26 May 2022
Orbit: 740 x 816 km, 98.7° (Epoch: 26 June)

Event Time Altitude Azimuth Distance (km) Brightness Sun altitude
Rises 01:54:23 0° 16° (NNE) 3,355 8.2 -11.4°
Reaches altitude 10° 01:56:46 10° 19° (NNE) 2,417 7.4 -11.2°
Maximum altitude 02:02:07 69° 103° (ESE) 868 3.9 -10.6°
Drops below altitude 10° 02:07:21 10° 187° (S) 2,372 5.5 -10.1°
Enters shadow 02:07:54 - 187° (S) 2,586 5.7 -10.0°
